Location: Bratislava
(48.1500°N, 17.1170°E)
Time: 22:35:58
(UTC+01:00)

ISS - Visible Passes

Search period start: 24 March 2019 00:00
Search period end: 03 April 2019 01:00
Orbit: 408 x 411 km, 51.6° (Epoch: 24 March)

Date Brightness Start Highest point End Pass type
(mag) Time Alt. Az. Time Alt. Az. Time Alt. Az.
24 Mar -3.9 19:32:22 10° WSW 19:35:40 71° SSE 19:37:09 30° ENE visible
24 Mar -0.8 21:09:11 10° W 21:09:56 15° WNW 21:09:56 15° WNW visible
25 Mar -3.4 18:41:53 10° SW 18:45:04 46° SSE 18:48:15 10° ENE visible
25 Mar -3.2 20:18:24 10° W 20:21:38 53° NNW 20:21:38 53° NNW visible
26 Mar -3.6 19:27:38 10° WSW 19:30:56 68° NNW 19:33:13 18° ENE visible
26 Mar -1.2 21:04:37 10° WNW 21:05:59 21° WNW 21:05:59 21° WNW visible
27 Mar -3.0 20:13:50 10° WNW 20:17:01 44° N 20:17:27 41° NNE visible
28 Mar -3.0 19:23:01 10° W 19:26:15 48° N 19:28:51 14° ENE visible
28 Mar -1.6 20:59:56 10° WNW 21:01:37 26° NW 21:01:37 26° NW visible
29 Mar -3.0 20:09:10 10° WNW 20:12:22 44° N 20:12:58 39° NE visible
30 Mar -2.9 19:18:22 10° WNW 19:21:33 43° N 19:24:16 13° ENE visible
30 Mar -2.0 20:55:06 10° WNW 20:57:01 31° WNW 20:57:01 31° WNW visible
31 Mar -3.4 21:04:22 10° WNW 21:07:39 56° NNE 21:08:18 45° ENE visible
31 Mar -0.4 22:41:03 10° WNW 22:41:04 10° WNW 22:41:04 10° WNW visible
01 Apr -3.1 20:13:36 10° WNW 20:16:50 47° N 20:19:35 13° E visible
01 Apr -2.3 21:50:14 10° WNW 21:52:20 35° W 21:52:20 35° W visible
02 Apr -3.9 20:59:28 10° WNW 21:02:47 87° NNE 21:03:36 48° ESE visible
